Tracking 22124 objects as of 23-Jan-2021
HD Live streaming from Space Station
objects crossing your sky now

KIKU 1 (ETS 1)

Track KIKU 1 (ETS 1) now!
10-day predictions
KIKU 1 (ETS 1) is classified as:


NORAD ID: 8197
Int'l Code: 1975-082A
Perigee: 980.7 km
Apogee: 1,108.5 km
Inclination: 47.0 °
Period: 105.9 minutes
Semi major axis: 7415 km
RCS: 1.482 m2 (large)
Launch date: September 9, 1975
Source: Japan (JPN)
Launch site: TANEGASHIMA SPACE CENTER (TNSTA)
aabbcc
Your satellite tracking list
Your tracking list is empty




NASA's NSSDC Master Catalog

Two Line Element Set (TLE):
1 08197U 75082A   21022.88592346 -.00000105  00000-0  27171-4 0  9998
2 08197  46.9870 232.8372 0086138 313.3008  59.9700 13.59519450254195
Source of the keplerian elements: AFSPC